Weather History for Kirksville, MO

Change the Weather History Date:

Thursday, August 21, 2014

  Actual Average Record
Temperature  
Mean Temperature 82 °F 73 °F  
Max Temperature 91 °F 84 °F 103 °F (1936)
Min Temperature 73 °F 63 °F 43 °F (1950)
Degree Days  
Heating Degree Days 0 0  
Month to date heating degree days 0 0  
Since 1 June heating degree days 12 17  
Since 1 July heating degree days 6 1  
Cooling Degree Days 17 8  
Month to date cooling degree days 168 203  
Year to date cooling degree days 728 770  
Since 1 June cooling degree days 606 708  
Growing Degree Days 32 (Base 50)    
Moisture  
Dew Point 72 °F    
Average Humidity 75    
Maximum Humidity 91    
Minimum Humidity 59    
Precipitation  
Precipitation 0.00 in 0.12 in 1.68 in (1964)
Month to date precipitation 7.54 2.41  
Year to date precipitation 26.87 26.00  
Sea Level Pressure  
Sea Level Pressure 29.91 in    
Wind  
Wind Speed 9 mph (SSW)    
Max Wind Speed 17 mph    
Max Gust Speed 23 mph    
Visibility 10 miles    
Events      
T = Trace of Precipitation, MM = Missing Value Source: NWS Daily Summary

Daily Weather History Graph

Daily Weather History Graph

Search for Another Location

Airport:

Trip Planner

Search our weather history database for the weather conditions in past years. The results will help you decide how hot, cold, wet, or windy it might be!

Date:

Astronomy

Aug. 21, 2014 Rise Set
Actual Time 6:27 AM CDT 7:58 PM CDT
Civil Twilight 5:58 AM CDT 8:26 PM CDT
Nautical Twilight 5:24 AM CDT 9:01 PM CDT
Astronomical Twilight 4:47 AM CDT 9:37 PM CDT
Moon 2:58 AM CDT (8/21) 5:27 PM CDT (8/21)
Length of Visible Light 14h 28m
Length of Day
13h 31m
Waning Crescent, 13% of the Moon is Illuminated
Aug 21
Waning Crescent
Aug 25
New
Sep 2
First Quarter
Sep 8
Full
Sep 15
Last Quarter

Hourly Weather History & Observations

Time (CDT) Temp. Heat Index Dew Point Humidity Pressure Visibility Wind Dir Wind Speed Gust Speed Precip Events Conditions
12:55 AM 77.0 °F - 71.1 °F 82% 29.91 in 10.0 mi SSW 8.1 mph - N/A   Clear
1:55 AM 75.9 °F - 70.0 °F 82% 29.91 in 10.0 mi SSW 8.1 mph - N/A   Clear
2:55 AM 75.9 °F - 68.0 °F 76% 29.91 in 10.0 mi SSW 8.1 mph - N/A   Clear
3:55 AM 75.0 °F - 68.0 °F 79% 29.91 in 10.0 mi SSW 8.1 mph - N/A   Clear
4:55 AM 75.0 °F - 66.9 °F 76% 29.91 in 10.0 mi SSW 8.1 mph - N/A   Clear
5:55 AM 73.9 °F - 66.9 °F 79% 29.89 in 10.0 mi SSW 6.9 mph - N/A   Clear
6:55 AM 73.0 °F - 66.9 °F 81% 29.90 in 10.0 mi SSW 9.2 mph - N/A   Clear
7:55 AM 75.9 °F - 68.0 °F 76% 29.92 in 10.0 mi SSW 8.1 mph - N/A   Clear
8:55 AM 78.1 °F - 70.0 °F 76% 29.92 in 10.0 mi SW 10.4 mph 19.6 mph N/A   Clear
9:55 AM 82.0 °F 86.7 °F 72.0 °F 71% 29.92 in 10.0 mi SW 12.7 mph 21.9 mph N/A   Clear
10:55 AM 84.9 °F 90.7 °F 72.0 °F 65% 29.93 in 10.0 mi SW 13.8 mph 20.7 mph N/A   Clear
11:55 AM 86.0 °F 93.0 °F 73.0 °F 65% 29.92 in 10.0 mi SW 15.0 mph 20.7 mph N/A   Clear
12:55 PM 88.0 °F 96.5 °F 73.9 °F 63% 29.91 in 10.0 mi SW 10.4 mph - N/A   Clear
1:55 PM 89.1 °F 98.0 °F 73.9 °F 61% 29.92 in 10.0 mi SW 15.0 mph 19.6 mph N/A   Clear
2:55 PM 91.0 °F 101.6 °F 75.0 °F 59% 29.91 in 10.0 mi Variable 6.9 mph - N/A   Scattered Clouds
3:55 PM 87.1 °F 97.3 °F 75.9 °F 69% 29.89 in 10.0 mi South 6.9 mph - N/A   Partly Cloudy
4:42 PM 88.0 °F 96.5 °F 73.9 °F 63% 29.91 in 1.8 mi SSW 9.2 mph - N/A   Haze
4:55 PM 88.0 °F 97.5 °F 75.0 °F 65% 29.89 in 10.0 mi SSW 8.1 mph - N/A   Clear
5:55 PM 87.1 °F 97.3 °F 75.9 °F 69% 29.90 in 10.0 mi South 6.9 mph - N/A   Clear
6:55 PM 86.0 °F 96.9 °F 77.0 °F 74% 29.88 in 10.0 mi South 5.8 mph - N/A   Clear
7:55 PM 80.1 °F 85.4 °F 75.9 °F 87% 29.88 in 10.0 mi South 5.8 mph - N/A   Clear
8:55 PM 78.1 °F - 75.0 °F 90% 29.88 in 9.0 mi SSE 5.8 mph - N/A   Clear
9:55 PM 78.1 °F - 75.0 °F 90% 29.91 in 10.0 mi South 5.8 mph - N/A   Partly Cloudy
10:55 PM 79.0 °F - 75.0 °F 88% 29.91 in 10.0 mi South 6.9 mph - N/A   Overcast
11:55 PM 80.1 °F 84.5 °F 73.9 °F 81% 29.91 in 10.0 mi SSW 6.9 mph - N/A   Clear